Skip Page Navigation
NASA JPL Caltech
NASA Logo - Jet Propulsion Laboratory + View the NASA Portal
+ Center for Near-Earth Object Studies
JPL Home Earth Solar System Stars & Galaxies Technology
JPL Solar System Dynamics
BODIES ORBITS EPHEMERIDES TOOLS PHYSICAL DATA DISCOVERY FAQ SITE MAP
JPL Small-Body Database Browser
Search: [ help ]  
441942 (2010 KB35)
Classification: Main-belt Asteroid          SPK-ID: 2441942
Ephemeris | Orbit Diagram | Orbital Elements | Mission Design | Physical Parameters | Discovery Circumstances ]

[ show orbit diagram ]
Orbital Elements at Epoch 2459000.5 (2020-May-31.0) TDB
Reference: JPL 13 (heliocentric ecliptic J2000)
 Element Value Uncertainty (1-sigma)   Units 
e .1668239717319732 1.1555e-07  
a 2.863097437701371 7.232e-08 au
q 2.385464151688392 3.1991e-07 au
i 16.56522827061924 1.1728e-05 deg
node 324.7350583845941 2.5444e-05 deg
peri 27.23099771638216 3.8095e-05 deg
M 351.2882805105344 2.5519e-05 deg
tp 2459043.320723570254
(2020-Jul-12.82072357)
0.00012609 TDB
period 1769.508362147363
4.84
6.7045e-05
1.836e-07
d
yr
n .20344634006879 7.7083e-09 deg/d
Q 3.34073072371435 8.4384e-08 au
  Orbit Determination Parameters
   # obs. used (total)      127  
   data-arc span      4528 days (12.40 yr)  
   first obs. used      2005-10-27  
   last obs. used      2018-03-21  
   planetary ephem.      DE431  
   SB-pert. ephem.      SB431-N16  
   condition code      0  
   norm. resid. RMS      .62319  
   source      ORB  
   producer      Otto Matic  
   solution date      2020-May-22 03:53:21  

Additional Information
 Earth MOID = 1.38882 au 
 Jupiter MOID = 2.10058 au 
 T_jup = 3.219 
[ show covariance matrix ]

Ephemeris | Orbit Diagram | Orbital Elements | Mission Design | Physical Parameters | Discovery Circumstances ]

Physical Parameter Table
Parameter Symbol Value Units Sigma Reference Notes
absolute magnitude H 16.4   n/a MPO450445  
diameter diameter 2.376 km 0.696 urn:nasa:pds:neowise_diameters_albedos::2.0[mainbelt] (http://adsabs.harvard.edu/abs/2011ApJ...741...68M)  
geometric albedo albedo 0.086   0.040 urn:nasa:pds:neowise_diameters_albedos::2.0[mainbelt] (http://adsabs.harvard.edu/abs/2011ApJ...741...68M)  

441942 (2010 KB35)          Discovered 2010-May-19 by WISE at WISE
Reference: Last Updated: 2015-09-02

Alternate Designations
 2010 KB35 = 2008 CA148 
Ephemeris | Orbit Diagram | Orbital Elements | Mission Design | Physical Parameters | Discovery Circumstances ]
ABOUT SSD CREDITS/AWARDS PRIVACY/COPYRIGHT GLOSSARY LINKS
FirstGov 2020-Aug-05 05:57 UT
(server date/time)  
NASA Home Page
Site Manager:   Ryan S. Park
Webmaster  Alan B. Chamberlin